FENGYUN 1C DEB, 31378

Orbit data source: Space-Track

FENGYUN 1C DEB, 31378 is space debris in SSO originally from a launch on Mon, 10 May 1999 UTC launched from the Taiyaun Space Center, China (TSC). Fengyun 1C debris stems from the Chinese weather satellite Fengyun-1C, which was intentionally destroyed by a Chinese anti-satellite missile in 2007. This event dramatically increased the amount of space debris, with thousands of trackable fragments posing hazards to satellites and human spaceflight. The Fengyun 1C debris cloud has become a focal point in discussions about space sustainability and the need for international regulations to prevent the creation of new debris.

Loading next visibility...
Identifier
31378, 1999-025BSJ
Orbit
SSO
Country
Flag of CNCN / PRC
Related business
Manufacturer
Unknown
Mission
Spacecraft
Bus & Motor
Unknown
Mass
Unknown
Launch date (UTC)
1999-05-10 (27 years ago)
Launch vehicle
Unknown
Launch site
Taiyaun Space Center, China (TSC)
Object type
Payload
Rocket body
Debris
Shape & HBR
Unknown shape, 0.1 m
Radar Cross Section
Small (<0.1 m²)

Expand to show TLE details & history
Last TLE update: 13 hours ago

TLE from 13 hours ago
0 FENGYUN 1C DEB
1 31378U 99025BSJ 26208.73698149  .00000762  00000-0  70047-3 0  9998
2 31378 100.7454 133.4652 0170179 347.0273  12.6525 13.80481345973557
Epoch: 2026-07-27T17:41Z
TLE epoch observation values (Epoch: 2026-07-27T17:41:15.200Z)
Latitude
-0.00001°
Longitude
-77.2644°
Altitude
843.169 km
Speed
7.493 km/s
True Right ascension
08h 53m 51s
True Declination
0° 00' 00"
Sunlit
Object was in daylight at epoch
Visualization orbit readout
Latitude
Unknown
Longitude
Unknown
Altitude
Unknown
Speed
Unknown
Apparent Right ascension
Unknown
Apparent Declination
Unknown
Sunlit
N/A
Visualization observer readout
Local Sidereal Time
19:37:11
Azimuth
Unknown
Elevation
Unknown
Doppler factor
Unknown
Orbital elements
Apogee altitude
1,084.368 km
Perigee altitude
834.626 km
Semi-major axis
7,337.634 km
Eccentricity
0.01702
Inclination
100.7454°
RAAN
133.4652°
Arg. of periapsis
347.0273°
True anomaly
13.08869°
Mean anomaly
12.6525°
Eccentric anomaly
12.86968°
Mean motion
3.4531 °/min
Orbital period
104.25 mins
BSTAR
0.00070047
Loading maneuver chart data...
Computing Atmospheric mass density...
Loading historical data...
Loading historical data...
Loading historical data...
Loading historical data...
Loading historical data...
Loading historical data...
Loading historical data...

Documentation

Showing up to 5 results
|